Flag for United Kingdom Weather past 2 weeks in St Helens, England, United Kingdom

Now
39 °F

Passing clouds.


Feels Like: 34 °F
Forecast: 38 / 43 °F
Wind: 8 mph from South

Location: Liverpool Airport

Current Time: Mar 3, 2015 at 3:44:51 AM

Latest Report: Mar 3, 2015 at 2:50 AM


Visibility: N/A

Pressure: 29.80 "Hg

Humidity: 70%

Dew point: 30 °F

Location of St HelensLocation

Historic Weather in St Helens — Graph

°F

St Helens temperature yesterday

Maximum temperature yesterday: 45 °F (at 1:20 PM)
Minimum temperature yesterday: 37 °F (at 1:20 AM)
Average temperature yesterday: 40 °F

Past Weeks' High & Low Weather Summary

 TemperatureHumidityPressure
High52 °F (Feb 18, 1:20 PM)100% (Feb 16, 4:50 AM)30.66 "Hg (Feb 16, 4:50 AM)
Low34 °F (Feb 22, 7:20 AM)53% (Mar 2, 3:20 PM)29.00 "Hg (Feb 23, 5:50 PM)
Average43 °F82%29.77 "Hg
* Reported Feb 16 2:20 AM — Mar 3 2:20 AM, St Helens, Weather by CustomWeather, © 2015

Note: Actual official high and low records may vary slightly from our data, if they occured in-between our weather recording intervals... More about our weather records

Advertising

St Helens weather history for previous 24 hours

 ConditionsComfort  
Time TempWeatherWind HumidityBarometerVisibility
2:20 AM
Tue, Mar 3
39 °FClear.12 mph75%29.80 "Hg10 mi
1:50 AM39 °FClear.12 mph75%29.83 "Hg10 mi
1:20 AM39 °FClear.12 mph75%29.83 "Hg10 mi
12:50 AM37 °FClear.10 mph75%29.83 "Hg10 mi
12:20 AM39 °FClear.16 mph75%29.83 "Hg10 mi
11:50 PM
Mon, Mar 2
39 °FClear.18 mph70%29.83 "Hg10 mi
11:20 PM39 °FClear.15 mph75%29.83 "Hg10 mi
10:50 PM39 °FClear.14 mph75%29.83 "Hg10 mi
10:20 PM39 °FClear.14 mph75%29.83 "Hg10 mi
9:50 PM39 °FClear.15 mph75%29.80 "Hg10 mi
9:20 PM39 °FPassing clouds.12 mph75%29.80 "HgN/A
8:50 PM39 °FPassing clouds.8 mph75%29.80 "HgN/A
8:20 PM39 °FPassing clouds.10 mph81%29.80 "HgN/A
7:50 PM39 °FPassing clouds.10 mph75%29.80 "HgN/A
7:20 PM37 °FPassing clouds.6 mph81%29.77 "HgN/A
6:50 PM41 °FScattered showers. Passing clouds.15 mph70%29.80 "HgN/A
6:20 PM41 °FScattered showers. Passing clouds.15 mph70%29.77 "HgN/A
5:50 PM41 °FScattered showers. Passing clouds.17 mph66%29.77 "HgN/A
5:20 PM41 °FPassing clouds.18 mph61%29.77 "HgN/A
4:50 PM43 °FPassing clouds.20 mph57%29.77 "HgN/A
4:20 PM45 °FPassing clouds.24 mph57%29.77 "HgN/A
3:50 PM45 °FPassing clouds.23 mph53%29.77 "HgN/A
3:20 PM45 °FPassing clouds.24 mph53%29.74 "HgN/A
2:50 PM45 °FPassing clouds.25 mph57%29.74 "HgN/A
2:20 PM45 °FPassing clouds.28 mph57%29.74 "HgN/A
1:50 PM45 °FPassing clouds.28 mph61%29.71 "HgN/A
1:20 PM45 °FPassing clouds.28 mph61%29.71 "HgN/A
12:50 PM43 °FScattered showers. Passing clouds.31 mph71%29.68 "HgN/A
12:20 PM43 °FScattered showers. Passing clouds.33 mph71%29.65 "HgN/A
11:50 AM41 °FRain showers. Partly sunny.31 mph81%29.65 "Hg3 mi
11:20 AM43 °FScattered showers. Passing clouds.33 mph71%29.62 "HgN/A
10:50 AM41 °FScattered showers. Passing clouds.35 mph76%29.62 "HgN/A
10:20 AM41 °FScattered showers. Passing clouds.29 mph76%29.59 "HgN/A
9:50 AM39 °FScattered showers. Scattered clouds.24 mph75%29.59 "HgN/A
9:20 AM39 °FSnow showers. Scattered clouds.29 mph75%29.56 "Hg5 mi
8:50 AM39 °FScattered showers. Scattered clouds.26 mph75%29.53 "HgN/A
8:20 AM39 °FSnow showers. Scattered clouds.26 mph70%29.53 "HgN/A
7:50 AM39 °FScattered showers. Scattered clouds.23 mph70%29.50 "HgN/A
7:20 AM39 °FScattered showers. Scattered clouds.17 mph75%29.50 "HgN/A
6:50 AM39 °FScattered showers. Passing clouds.13 mph81%29.47 "HgN/A
6:20 AM41 °FPassing clouds.16 mph76%29.47 "HgN/A
5:50 AM39 °FPassing clouds.10 mph81%29.47 "HgN/A
5:20 AM39 °FClear.12 mph81%29.47 "Hg10 mi
4:50 AM39 °FClear.12 mph81%29.47 "Hg10 mi
4:20 AM39 °FClear.16 mph81%29.47 "Hg10 mi
3:50 AM39 °FClear.15 mph75%29.45 "Hg10 mi
3:20 AM39 °FClear.14 mph75%29.47 "Hg10 mi
Weather by CustomWeather, © 2015

See weather overviewHow to use our weather pages